Temp
-6 -6 -6 -4 -4 -3 -2 -2 -1 0 2 4 6 9 9 12 12 13 13 14 13 13 11 11 12 11 10 11 11 10 10 10 10 9 9 10 11 9
-7 -7 -6 -6 -5 -4 -3 -3 -2 -2 -1 2 4 7 9 11 11 13 12 11 10 11 11 11 11 11 10 10 10 10 10 10 10 10 9 9 10 10
-7 -7 -7 -7 -6 -5 -4 -4 -4 -3 -3 -0 3 5 8 9 10 10 10 11 11 12 10 10 10 10 10 11 11 10 10 10 10 9 9 9 9 9
-8 -8 -8 -7 -7 -6 -5 -5 -5 -4 -4 -4 2 5 7 9 10 10 10 11 11 10 11 10 10 10 10 10 10 11 10 10 10 10 10 9 9 10
-8 -8 -8 -8 -8 -7 -7 -6 -6 -5 -4 -4 1 4 7 9 10 10 10 10 10 10 11 11 10 10 10 10 11 10 10 11 10 10 10 10 9 9
-9 -9 -9 -8 -8 -7 -8 -7 -6 -6 -5 -3 -1 4 6 8 9 10 10 10 9 10 12 11 10 10 10 11 10 10 10 10 10 10 10 10 10 9
-10 -9 -9 -9 -8 -8 -8 -8 -7 -6 -6 -4 -2 3 6 7 9 10 10 10 9 10 10 10 9 10 10 10 9 10 9 10 10 10 10 10 10 10
-10 -10 -9 -9 -9 -9 -9 -8 -7 -7 -7 -6 -5 -1 6 8 9 10 10 9 9 9 9 10 10 9 10 10 10 10 10 10 10 10 10 10 10 10
-10 -11 -10 -10 -10 -10 -9 -8 -8 -6 -6 -6 -6 -2 4 6 9 10 10 9 9 9 9 10 10 10 10 11 11 10 10 10 10 10 10 10 10 10
-11 -11 -11 -12 -12 -12 -11 -8 -9 -7 -7 -6 -6 -3 -0 2 9 9 9 9 9 9 9 9 9 10 10 11 11 10 10 10 10 10 10 10 10 10
-10 -11 -12 -12 -13 -12 -11 -10 -9 -8 -6 -5 -4 -4 -4 -1 6 8 8 8 8 9 9 9 9 9 10 10 10 10 10 10 10 10 10 10 10 10
-11 -11 -12 -13 -13 -13 -12 -12 -10 -9 -9 -6 -5 -4 -3 -1 0 4 6 7 7 7 8 8 9 9 8 9 9 9 10 9 9 9 9 9 9 9
-12 -12 -13 -13 -14 -13 -13 -12 -12 -9 -9 -9 -7 -6 -5 -3 -0 1 1 3 4 4 5 6 7 8 8 8 9 8 9 9 9 9 9 8 9 9
-13 -13 -14 -12 -14 -13 -13 -12 -10 -10 -10 -10 -9 -9 -6 -5 -2 -1 0 1 2 3 3 4 6 7 8 8 8 8 8 8 8 8 8 8 8 8
-14 -14 -14 -14 -14 -13 -14 -14 -13 -12 -12 -11 -11 -10 -9 -9 -6 -3 -1 1 2 3 3 2 2 5 6 6 6 7 6 7 7 7 8 8 8 8
-13 -14 -14 -14 -14 -13 -13 -13 -13 -14 -13 -13 -12 -11 -11 -10 -6 -5 -3 -2 -0 -1 -0 1 1 3 4 5 5 5 5 5 6 6 7 7 7 7
-14 -14 -14 -15 -14 -14 -14 -14 -14 -14 -14 -14 -13 -12 -12 -11 -10 -9 -7 -5 -4 -3 -3 -1 0 1 2 3 3 4 4 4 5 5 5 5 6 6
-15 -15 -15 -16 -16 -15 -15 -15 -15 -15 -15 -14 -14 -13 -12 -12 -11 -10 -10 -9 -8 -7 -6 -4 -2 -1 0 1 2 3 3 3 3 4 4 4 5 5
-16 -16 -16 -16 -16 -16 -16 -16 -16 -16 -15 -15 -14 -14 -13 -13 -12 -11 -11 -10 -9 -9 -8 -6 -3 -4 -2 -1 -0 1 2 2 2 3 3 3 4 4
-17 -17 -17 -17 -17 -17 -17 -17 -17 -16 -16 -15 -15 -14 -14 -13 -12 -12 -11 -11 -10 -10 -8 -7 -6 -5 -4 -4 -2 -1 -0 1 1 1 2 2 2 3
-18 -18 -18 -18 -18 -18 -18 -18 -17 -17 -16 -16 -15 -15 -14 -14 -13 -12 -12 -11 -11 -10 -9 -8 -8 -7 -6 -5 -3 -2 -2 -1 -1 -0 0 1 1 1
-19 -19 -19 -19 -19 -19 -18 -18 -18 -17 -17 -16 -16 -16 -15 -14 -14 -13 -12 -12 -11 -10 -10 -9 -8 -8 -7 -6 -5 -4 -3 -2 -2 -1 -1 -2 -1 -1
-19 -19 -19 -19 -19 -19 -19 -19 -18 -18 -17 -17 -17 -16 -16 -15 -14 -13 -12 -12 -11 -11 -10 -9 -9 -8 -7 -7 -6 -5 -5 -4 -3 -3 -3 -3 -3 -3
Height
1433 1428 1423 1419 1416 1412 1409 1406 1403 1392 1382 1375 1377 1376 1373 1376 1376 1381 1385 1388 1391 1393 1399 1410 1419 1427 1432 1437 1443 1449 1454 1459 1463 1468 1471 1474 1478 1484
1427 1421 1416 1412 1408 1404 1401 1398 1394 1388 1375 1373 1365 1368 1367 1364 1365 1367 1369 1373 1377 1382 1387 1394 1401 1410 1418 1424 1431 1438 1444 1448 1453 1458 1463 1466 1470 1474
1421 1416 1410 1406 1401 1397 1394 1389 1384 1380 1368 1357 1359 1356 1358 1356 1356 1356 1360 1361 1364 1367 1373 1378 1386 1393 1401 1410 1418 1425 1431 1437 1442 1447 1453 1458 1461 1466
1415 1410 1404 1400 1394 1390 1386 1381 1375 1368 1361 1350 1343 1344 1343 1343 1345 1346 1349 1350 1353 1357 1362 1368 1374 1379 1386 1394 1403 1410 1418 1425 1431 1437 1441 1448 1452 1455
1410 1404 1398 1393 1388 1383 1378 1371 1364 1356 1349 1343 1328 1331 1330 1335 1335 1335 1337 1338 1343 1348 1352 1360 1364 1366 1370 1382 1390 1397 1401 1413 1420 1426 1431 1436 1441 1446
1404 1398 1393 1389 1383 1376 1368 1362 1355 1346 1337 1328 1318 1317 1318 1319 1321 1322 1324 1327 1332 1337 1344 1348 1353 1353 1360 1369 1378 1383 1387 1399 1405 1412 1420 1425 1430 1435
1398 1393 1388 1384 1378 1371 1363 1353 1346 1337 1330 1320 1309 1306 1305 1307 1307 1307 1312 1316 1322 1328 1332 1336 1342 1347 1351 1358 1366 1372 1377 1385 1391 1399 1406 1413 1419 1424
1393 1387 1382 1377 1370 1362 1354 1345 1338 1330 1322 1314 1303 1297 1291 1290 1289 1293 1306 1309 1313 1314 1322 1326 1332 1336 1342 1347 1354 1360 1366 1373 1380 1386 1393 1399 1405 1412
1390 1382 1376 1371 1363 1355 1345 1336 1329 1323 1317 1310 1299 1290 1283 1280 1279 1287 1293 1298 1302 1307 1314 1316 1324 1329 1335 1341 1347 1352 1357 1363 1368 1374 1380 1386 1393 1399
1388 1381 1374 1366 1359 1350 1340 1329 1324 1316 1308 1301 1293 1283 1277 1274 1270 1276 1284 1291 1299 1301 1305 1308 1316 1322 1329 1334 1339 1344 1349 1353 1356 1364 1368 1375 1380 1385
1386 1379 1372 1363 1354 1347 1338 1326 1319 1313 1302 1293 1285 1287 1282 1265 1268 1272 1278 1286 1291 1294 1298 1304 1310 1316 1321 1326 1330 1336 1341 1346 1351 1355 1359 1364 1370 1376
1383 1377 1369 1361 1352 1344 1336 1327 1311 1308 1302 1294 1289 1283 1272 1272 1271 1263 1266 1278 1283 1288 1294 1299 1299 1306 1312 1318 1322 1327 1332 1336 1341 1346 1351 1354 1361 1364
1381 1373 1366 1356 1349 1341 1333 1326 1317 1306 1298 1295 1289 1279 1271 1262 1257 1260 1270 1272 1277 1282 1285 1289 1293 1297 1304 1309 1315 1320 1325 1330 1334 1338 1342 1344 1351 1354
1380 1371 1363 1354 1348 1341 1332 1324 1318 1310 1301 1297 1295 1286 1268 1269 1262 1261 1266 1270 1275 1280 1282 1285 1288 1294 1300 1306 1310 1315 1319 1324 1328 1330 1335 1340 1343 1346
1379 1370 1363 1355 1348 1342 1336 1327 1317 1310 1302 1293 1288 1283 1279 1276 1271 1269 1271 1271 1276 1281 1284 1286 1292 1290 1296 1299 1305 1310 1314 1319 1322 1326 1329 1334 1336 1339
1374 1370 1364 1356 1350 1343 1336 1329 1325 1316 1307 1298 1293 1290 1286 1279 1273 1272 1271 1273 1275 1281 1287 1286 1290 1290 1291 1296 1302 1307 1310 1315 1318 1322 1326 1328 1330 1332
1373 1371 1364 1356 1350 1344 1338 1333 1325 1316 1306 1303 1301 1293 1287 1284 1280 1277 1277 1277 1277 1280 1284 1284 1289 1289 1288 1293 1300 1302 1306 1309 1314 1317 1321 1322 1324 1327
1376 1370 1364 1358 1352 1345 1338 1333 1326 1319 1313 1311 1306 1300 1294 1293 1291 1285 1283 1282 1284 1284 1289 1285 1282 1286 1288 1293 1296 1298 1301 1304 1307 1311 1313 1315 1318 1321
1377 1371 1365 1359 1354 1349 1343 1335 1329 1326 1321 1315 1311 1306 1300 1294 1288 1288 1288 1286 1284 1284 1284 1282 1279 1286 1291 1292 1293 1294 1297 1298 1302 1305 1307 1308 1311 1314
1378 1373 1367 1361 1355 1350 1345 1340 1333 1327 1321 1316 1311 1304 1299 1296 1294 1292 1290 1291 1290 1289 1288 1285 1283 1292 1289 1287 1287 1291 1292 1294 1297 1299 1302 1304 1306 1309
1379 1374 1369 1363 1357 1351 1345 1340 1334 1326 1321 1317 1313 1308 1303 1299 1298 1296 1295 1293 1290 1287 1286 1287 1286 1285 1283 1285 1287 1288 1290 1290 1293 1295 1298 1299 1302 1305
1380 1375 1370 1364 1359 1353 1346 1341 1335 1330 1325 1320 1317 1312 1306 1301 1298 1294 1292 1291 1290 1288 1285 1281 1280 1279 1282 1285 1286 1285 1285 1288 1290 1291 1295 1296 1299 1302
1380 1375 1370 1365 1360 1355 1349 1343 1338 1333 1330 1325 1320 1315 1310 1306 1304 1300 1295 1291 1286 1284 1281 1279 1278 1280 1282 1283 1282 1283 1283 1285 1286 1288 1291 1293 1295 1299
Wind_Speed
26 27 27 27 28 28 30 36 33 36 40 46 42 42 48 53 56 62 62 61 58 51 60 64 63 57 53 53 52 52 49 45 41 39 38 38 42 46
26 28 27 27 27 28 26 32 38 38 45 47 52 44 39 45 47 47 50 53 55 52 57 66 68 67 61 56 56 55 55 51 47 44 41 40 39 42
26 27 27 26 27 28 27 31 35 37 42 53 48 53 45 48 50 54 52 48 48 54 51 65 67 67 69 60 59 60 59 58 52 49 47 44 40 40
28 27 26 25 27 26 26 29 33 38 38 42 54 45 50 50 53 50 48 53 53 53 54 53 51 54 67 65 67 63 64 60 57 53 50 49 46 43
27 27 26 26 26 26 27 30 32 36 37 39 50 54 49 48 49 49 49 46 51 44 47 47 45 48 51 58 63 64 64 58 59 56 54 52 50 48
27 26 25 24 27 30 32 31 31 35 35 39 42 54 48 49 51 47 46 49 48 43 42 42 41 40 47 45 46 42 55 59 59 61 58 54 52 51
26 26 25 25 26 31 31 32 32 31 30 35 38 37 52 49 57 51 45 41 44 43 43 43 40 41 44 45 46 44 48 51 62 60 59 57 55 54
28 29 25 25 28 31 34 32 27 27 28 31 31 31 41 49 45 41 41 38 32 46 38 36 35 38 43 47 49 50 52 55 56 59 59 58 57 57
29 28 27 27 29 31 34 31 27 22 22 22 23 18 28 26 47 41 43 41 38 33 38 38 37 38 40 37 34 38 45 49 51 53 56 57 59 58
29 27 26 28 29 33 34 31 29 26 21 16 12 14 9 21 37 41 40 37 33 31 34 36 40 39 39 34 33 35 35 34 37 44 46 51 54 56
25 25 26 28 31 30 29 30 30 26 20 13 7 4 3 3 27 37 38 34 33 32 31 33 37 37 32 31 32 32 33 37 40 40 40 40 43 45
26 25 27 30 29 28 27 26 33 29 25 19 10 5 6 8 4 19 24 27 24 17 33 32 30 29 21 25 24 23 27 29 34 38 40 43 41 44
26 27 28 32 29 26 25 24 25 26 23 20 16 15 11 11 10 6 9 15 14 7 19 24 25 27 20 12 25 26 25 24 26 27 29 26 30 35
26 27 29 31 28 25 26 26 22 21 21 19 18 20 20 16 12 8 4 4 5 7 6 15 14 22 24 21 14 15 20 22 22 22 26 28 29 31
25 26 27 27 26 23 25 26 27 25 25 25 25 24 22 19 11 7 2 2 4 8 11 10 12 19 20 16 17 17 16 14 14 19 19 19 23 26
30 24 24 24 23 23 24 25 22 24 24 24 24 23 19 19 16 12 7 2 3 4 9 16 14 16 19 20 20 19 18 11 12 16 16 17 19 20
25 22 22 24 24 24 24 24 24 26 28 26 24 24 22 20 19 16 11 6 3 3 8 9 13 13 14 18 21 21 22 22 23 21 23 18 19 17
20 21 22 23 24 26 27 26 26 27 27 24 23 22 22 19 18 16 14 11 7 5 6 4 7 7 10 14 16 18 20 20 23 23 20 20 21 20
20 21 22 23 24 23 24 26 26 25 24 24 23 22 22 20 21 18 16 14 12 11 10 7 1 4 6 7 8 11 16 16 17 19 20 20 21 20
20 21 22 23 24 24 24 24 25 25 25 25 24 24 23 20 19 18 17 16 14 12 9 7 4 6 5 4 5 9 12 14 13 16 17 17 18 18
21 21 21 22 23 24 25 24 25 27 27 26 25 25 24 22 19 18 16 16 15 12 10 7 7 11 10 11 12 12 12 10 12 14 15 15 16 16
21 21 21 21 22 23 24 25 25 25 25 26 26 24 23 22 22 22 19 19 16 14 14 14 11 9 7 9 9 10 13 12 14 14 15 14 11 9
21 21 21 21 21 22 23 23 24 24 24 25 24 23 22 21 20 19 19 19 18 17 16 16 13 9 9 9 9 9 13 11 11 12 13 14 14 10
Wind_Direction
309 308 302 294 288 287 274 269 279 288 279 275 268 260 253 252 248 242 240 238 244 238 228 229 232 238 235 237 235 235 234 232 232 233 230 228 227 225
314 310 306 298 295 289 287 272 277 279 280 272 264 266 253 244 240 243 234 239 241 238 237 234 231 239 234 234 236 236 235 232 231 232 232 230 229 229
315 314 307 304 299 295 289 288 284 285 283 277 270 263 258 242 239 239 238 240 245 241 235 238 235 233 232 231 234 235 236 234 231 230 232 232 231 231
316 313 310 310 305 301 296 291 289 292 288 288 265 268 252 241 234 242 243 240 240 239 234 229 232 232 232 233 237 243 234 234 233 233 231 232 232 232
316 313 313 313 312 310 305 302 297 297 293 293 281 255 256 242 239 236 237 231 231 228 230 230 238 235 223 229 234 235 231 232 233 234 234 234 233 234
319 317 312 312 316 316 312 310 307 301 299 299 284 259 259 243 232 226 224 224 230 229 233 235 235 233 217 221 229 229 234 231 232 233 234 234 236 237
323 322 315 313 314 317 317 312 312 307 302 305 294 272 256 247 229 219 213 215 224 231 234 235 234 224 220 221 225 229 229 233 232 233 234 234 236 238
326 323 321 318 313 319 321 321 314 307 302 309 313 272 252 239 217 205 205 206 205 224 226 231 222 226 226 223 228 233 233 233 231 232 235 236 235 237
330 326 325 321 321 321 324 327 328 315 301 304 320 310 261 228 202 201 207 210 211 215 215 221 227 225 220 220 226 229 230 230 231 232 233 235 235 238
332 331 326 326 330 330 327 328 333 332 324 315 332 329 270 232 202 198 200 210 215 222 221 223 224 221 222 230 228 227 230 233 228 233 232 234 236 240
336 331 332 333 336 333 332 328 330 341 343 324 337 317 335 328 197 202 200 205 209 211 209 219 223 223 225 228 229 229 232 232 231 232 235 238 235 237
338 337 335 335 340 338 337 338 333 342 352 349 337 332 19 67 141 182 180 196 194 195 199 200 201 199 206 222 222 226 230 228 231 231 233 234 235 239
337 336 336 340 343 344 345 347 340 333 347 356 354 345 358 40 72 103 144 164 177 178 177 186 187 198 202 201 221 225 221 233 232 230 233 235 244 238
336 334 334 340 343 348 350 350 356 356 355 1 0 356 13 5 39 61 80 129 162 197 169 177 196 200 209 201 191 195 214 226 229 238 228 234 236 239
334 337 335 341 344 349 353 357 359 3 3 3 359 3 9 5 12 43 60 138 233 230 231 246 211 182 183 181 184 189 192 207 226 224 232 228 232 242
340 340 340 345 349 351 355 356 358 4 5 6 358 0 2 9 16 20 26 64 182 215 237 239 249 227 220 224 233 233 233 211 219 227 234 239 241 243
346 340 344 351 352 354 356 357 358 1 5 3 355 359 3 9 14 17 21 35 67 278 249 225 229 238 237 234 237 237 236 233 235 241 243 246 245 251
350 347 349 352 354 352 352 354 358 358 359 357 357 359 0 5 8 12 10 15 10 344 305 268 225 248 238 234 231 234 237 237 241 247 251 245 248 249
355 351 350 350 351 352 351 351 352 353 353 355 354 354 355 1 6 7 8 5 359 345 331 330 338 281 242 220 230 227 236 236 239 242 244 244 243 242
355 352 349 348 348 348 349 349 348 351 354 354 351 353 357 359 2 1 358 351 345 340 341 350 14 272 233 219 213 237 238 238 242 243 242 242 242 243
350 350 348 347 346 346 346 348 349 350 353 352 350 352 353 354 353 350 347 343 344 347 342 331 295 271 262 255 247 245 243 241 240 242 244 240 238 239
347 346 346 346 345 345 346 347 348 349 350 350 346 347 347 352 346 345 345 340 338 334 329 330 337 328 289 251 250 248 248 246 243 242 238 229 230 231
344 344 344 343 344 344 345 345 345 346 345 343 343 343 345 342 341 338 336 336 335 335 343 337 337 319 291 254 245 244 251 248 243 238 231 223 217 222